This demonstration page uses our WeatherBlox Daily Observations layout. Learn more.

Left ArrowRight Arrow

41.12389, -100.76542

Hourly Observations for January 7, 2019

Temp ( °F °C ) Dew Point ( °F °C ) Humidity (%) Winds ( mph kmh ) Pressure ( in mb ) Visibility ( mi km ) Precip ( " mm )
12:53 am 00:53 Mostly Cloudy 45 7.2 32 0 61 61 W 15 24 29.63 1004 10 16 0.00 0.00
1:53 am 01:53 Mostly Clear 42 5.6 32 0 68 68 WNW 9 15 29.64 1004 10 16 0.00 0.00
2:53 am 02:53 Clear 42 5.6 30 -1.1 62 62 WNW 15 24 29.67 1005 10 16 0.00 0.00
3:53 am 03:53 Clear 39 3.9 29 -1.7 67 67 NW 15 24 29.69 1005 10 16 0.00 0.00
4:53 am 04:53 Clear 39 3.9 27 -2.8 62 62 WNW 18 30 29.73 1007 10 16 0.00 0.00
5:53 am 05:53 Clear 37 2.8 25 -3.9 62 62 NW 15 24 29.77 1008 10 16 0.00 0.00
6:53 am 06:53 Clear 34 1.1 24 -4.4 67 67 NNW 9 15 29.82 1010 10 16 0.00 0.00
7:53 am 07:53 Clear 30 -1.1 22 -5.6 72 72 NW 8 13 29.83 1010 10 16 0.00 0.00
8:53 am 08:53 Sunny 32 0 24 -4.4 73 73 WNW 9 15 29.84 1010 10 16 0.00 0.00
9:53 am 09:53 Sunny 35 1.7 25 -3.9 67 67 NW 9 15 29.86 1011 10 16 0.00 0.00
10:53 am 10:53 Sunny 40 4.4 23 -5 51 51 WNW 12 19 29.85 1011 10 16 0.00 0.00
11:53 am 11:53 Sunny 41 5 24 -4.4 51 51 NW 9 15 29.80 1009 10 16 0.00 0.00
12:53 pm 12:53 Sunny 46 7.8 25 -3.9 44 44 WNW 13 20 29.78 1008 10 16 0.00 0.00
1:53 pm 13:53 Sunny 48 8.9 26 -3.3 42 42 W 9 15 29.78 1008 10 16 0.00 0.00
2:53 pm 14:53 Mostly Cloudy 47 8.3 25 -3.9 42 42 W 10 17 29.77 1008 10 16 0.00 0.00
3:53 pm 15:53 Sunny 47 8.3 26 -3.3 44 44 WSW 8 13 29.78 1008 10 16 0.00 0.00
4:53 pm 16:53 Sunny 44 6.7 25 -3.9 47 47 WSW 12 19 29.78 1008 10 16 0.00 0.00
5:53 pm 17:53 Clear 49 9.4 24 -4.4 38 38 W 21 33 29.79 1009 10 16 0.00 0.00
6:53 pm 18:53 Mostly Clear 47 8.3 24 -4.4 41 41 W 16 26 29.83 1010 10 16 0.00 0.00
7:53 pm 19:53 Partly Cloudy 49 9.4 23 -5 36 36 WNW 33 54 29.85 1011 10 16 0.00 0.00
8:53 pm 20:53 Partly Cloudy 46 7.8 21 -6.1 37 37 WNW 31 50 29.90 1013 10 16 0.00 0.00
9:53 pm 21:53 Clear 41 5 27 -2.8 57 57 NW 29 46 29.98 1015 10 16 0.00 0.00
10:53 pm 22:53 Clear 39 3.9 25 -3.9 57 57 NW 26 43 30.01 1016 10 16 0.00 0.00
11:53 pm 23:53 Clear 38 3.3 24 -4.4 57 57 NNW 25 41 30.05 1018 10 16 0.00 0.00

Powered by AerisWeather